Weather History for KHPN - May, 2013

Change the Weather History Date:

Friday, May 24, 2013

  Actual Average Record
Temperature  
Mean Temperature 55 °F -  
Max Temperature 66 °F 67 °F 92 °F (1975)
Min Temperature 46 °F 49 °F 42 °F (1992)
Degree Days  
Heating Degree Days 10    
Growing Degree Days 5 (Base 50)    
Moisture  
Dew Point 53 °F    
Average Humidity 88    
Maximum Humidity 96    
Minimum Humidity 79    
Precipitation  
Precipitation 0.22 in - - ()
Sea Level Pressure  
Sea Level Pressure 29.78 in    
Wind  
Wind Speed 9 mph (WNW)    
Max Wind Speed 22 mph    
Max Gust Speed 31 mph    
Visibility 7 miles    
Events Fog , Rain    
Averages and records for this station are not official NWS values.
T = Trace of Precipitation, MM = Missing Value Source: NWS Daily Summary

Daily Weather History Graph

Daily Weather History Graph

Search for Another Location

Airport or City:

Trip Planner

Search our weather history database for the weather conditions in past years. The results will help you decide how hot, cold, wet, or windy it might be!

Date:

Astronomy

May. 24, 2013 Rise Set
Actual Time 5:29 AM EDT 8:14 PM EDT
Civil Twilight 4:57 AM EDT 8:46 PM EDT
Nautical Twilight 4:16 AM EDT 9:27 PM EDT
Astronomical Twilight 3:30 AM EDT 10:14 PM EDT
Moon 7:53 PM EDT 4:59 AM EDT
Length of Visible Light 15h 49m
Length of Day
14h 45m
Full, 100% of the Moon is Illuminated
May 24
Full
May 25
Full
May 31
Last Quarter
Jun 8
New
Jun 16
First Quarter

Hourly Weather History & Observations

Time (EDT) Temp. Windchill Dew Point Humidity Pressure Visibility Wind Dir Wind Speed Gust Speed Precip Events Conditions
12:48 AM 62.6 °F - 60.8 °F 94% 29.74 in 0.5 mi South 8.1 mph - 0.00 in Fog Fog
12:56 AM 62.1 °F - 61.0 °F 96% 29.73 in 0.5 mi South 6.9 mph - 0.00 in Fog Fog
1:56 AM 62.1 °F - 61.0 °F 96% 29.73 in 1.0 mi WNW 8.1 mph - 0.07 in Rain Rain
2:56 AM 62.1 °F - 59.0 °F 90% 29.69 in 6.0 mi NW 3.5 mph - 0.01 in Rain Light Rain
3:56 AM 62.1 °F - 59.0 °F 90% 29.67 in 7.0 mi Calm Calm - 0.01 in Rain Light Rain
4:56 AM 61.0 °F - 59.0 °F 93% 29.69 in 9.0 mi SSW 3.5 mph - 0.00 in Rain Light Rain
5:19 AM 60.8 °F - 59.0 °F 94% 29.70 in 8.0 mi Calm Calm - 0.01 in Rain Light Rain
5:56 AM 62.1 °F - 60.1 °F 93% 29.70 in 7.0 mi West 5.8 mph - 0.01 in   Overcast
6:56 AM 62.1 °F - 60.1 °F 93% 29.71 in 8.0 mi West 3.5 mph - 0.00 in   Mostly Cloudy
7:18 AM 62.6 °F - 60.8 °F 94% 29.73 in 9.0 mi West 3.5 mph - N/A   Mostly Cloudy
7:56 AM 63.0 °F - 60.1 °F 90% 29.73 in 10.0 mi SW 4.6 mph - N/A   Overcast
8:56 AM 63.0 °F - 60.1 °F 90% 29.74 in 10.0 mi West 5.8 mph - N/A   Mostly Cloudy
9:56 AM 64.9 °F - 60.1 °F 84% 29.74 in 10.0 mi WNW 5.8 mph - 0.00 in   Mostly Cloudy
10:14 AM 62.6 °F - 57.2 °F 82% 29.76 in 10.0 mi WNW 17.3 mph 25.3 mph N/A   Overcast
10:34 AM 57.2 °F - 53.6 °F 88% 29.76 in 10.0 mi NW 13.8 mph - N/A   Mostly Cloudy
10:56 AM 57.9 °F - 53.1 °F 84% 29.76 in 10.0 mi NW 11.5 mph - N/A   Mostly Cloudy
11:56 AM 57.0 °F - 51.1 °F 81% 29.78 in 10.0 mi NNW 17.3 mph - N/A   Mostly Cloudy
12:56 PM 54.0 °F - 51.1 °F 90% 29.79 in 6.0 mi NW 12.7 mph 20.7 mph N/A   Overcast
1:45 PM 53.6 °F - 51.8 °F 94% 29.79 in 2.5 mi NW 15.0 mph - 0.01 in Rain Light Rain
1:56 PM 53.1 °F - 50.0 °F 89% 29.80 in 2.5 mi NW 15.0 mph - 0.01 in Rain Light Rain
2:56 PM 53.1 °F - 48.9 °F 86% 29.81 in 6.0 mi NW 18.4 mph 28.8 mph 0.00 in   Overcast
3:13 PM 51.8 °F - 48.2 °F 88% 29.80 in 10.0 mi NW 16.1 mph 25.3 mph N/A   Overcast
3:56 PM 52.0 °F - 48.0 °F 86% 29.81 in 5.0 mi NNW 21.9 mph 28.8 mph 0.02 in   Light Drizzle
4:30 PM 51.8 °F - 46.4 °F 82% 29.84 in 5.0 mi NNW 16.1 mph 25.3 mph 0.00 in   Light Drizzle
4:56 PM 51.1 °F - 46.9 °F 86% 29.81 in 5.0 mi NNW 20.7 mph 31.1 mph 0.03 in Rain Light Rain
5:56 PM 51.1 °F - 46.9 °F 86% 29.84 in 7.0 mi NW 13.8 mph - N/A Rain Light Rain
6:13 PM 51.8 °F - 46.4 °F 82% 29.84 in 10.0 mi NNW 13.8 mph - 0.00 in Rain Light Rain
6:56 PM 48.9 °F - 45.0 °F 86% 29.86 in 7.0 mi NW 17.3 mph - 0.03 in Rain Light Rain
7:56 PM 48.0 °F - 43.0 °F 83% 29.88 in 7.0 mi NNW 17.3 mph 26.5 mph 0.01 in Rain Light Rain
8:56 PM 46.0 °F 38.8 °F 43.0 °F 89% 29.86 in 7.0 mi NW 18.4 mph - 0.02 in Rain Light Rain
9:56 PM 46.0 °F 40.2 °F 42.1 °F 86% 29.91 in 10.0 mi NW 12.7 mph 18.4 mph 0.00 in   Overcast
10:56 PM 46.0 °F 38.8 °F 39.9 °F 79% 29.91 in 10.0 mi NNW 18.4 mph 31.1 mph N/A   Overcast
11:56 PM 46.0 °F 39.0 °F 39.9 °F 79% 29.91 in 10.0 mi NNW 17.3 mph 25.3 mph N/A   Overcast